Regional Weather Roundup
Issued by NWS Sioux Falls, SD

Home | Current Version | Previous Version | Graphics & Text | Print | Product List | Glossary On
Versions: 1 2 3 4 5 6 7 8 9 10 11 12 13 14 15 16 17 18 19 20 21 22 23 24 25 26 27 28 29 30 31 32 33 34 35 36 37 38 39 40 41 42 43 44 45 46 47 48 49 50
000
ASUS43 KFSD 252010
RWRFSD

WEATHER ROUNDUP FOR SE SOUTH DAKOTA/SW MINNESOTA/NW IOWA
NATIONAL WEATHER SERVICE SIOUX FALLS SD
300 PM CDT SAT OCT 25 2014

NOTE: "FAIR" INDICATES FEW OR NO CLOUDS BELOW 12,000 FEET WITH NO
SIGNIFICANT WEATHER AND OR OBSTRUCTIONS TO VISIBILITY.


SDZ038>040-050-052>070-252100-
SOUTHEAST SOUTH DAKOTA

CITY           SKY/WX    TMP DP  RH WIND       PRES   REMARKS
CHAMBERLAIN    SUNNY     68  29  23 SE7       30.09F HAZE
HURON          SUNNY     67  28  23 NE5       30.10F
MADISON        FAIR      64  28  25 NE6       30.12F
MITCHELL       SUNNY     67  33  28 CALM      30.11F
SIOUX FALLS    SUNNY     68  31  25 CALM      30.11F
WINNER         FAIR      70  26  19 SE12      30.09F
YANKTON        SUNNY     68  34  28 NE8       30.10F
$$

MNZ071-072-080-081-089-090-097-098-252100-
SOUTHWEST MINNESOTA

CITY           SKY/WX    TMP DP  RH WIND       PRES   REMARKS
FAIRMONT       SUNNY     66  -8   5 NW10G21   30.09F
JACKSON        SUNNY     66  25  20 NW7G18    30.11S
LUVERNE        SUNNY     68  28  22 N6        30.12S
MARSHALL       SUNNY     63  28  27 NW16      30.10F
MONTEVIDEO     SUNNY     64  30  27 N14G21    30.10F
PIPESTONE      SUNNY     64  27  24 NW5       30.11F
REDWOOD FALLS  SUNNY     65  30  27 NW10      30.09F
TRACY          SUNNY     65  30  27 NW8       30.11S
WINDOM         SUNNY     64  27  24 NW9       30.11S
WORTHINGTON    SUNNY     64  28  25 N5        30.12S
$$

IAZ001>003-012>014-020>022-031-032-NEZ013-014-SDZ071-252100-
NORTHWEST IOWA

CITY           SKY/WX    TMP DP  RH WIND       PRES   REMARKS
CHEROKEE       SUNNY     67  38  34 N7        30.10F
DENISON        SUNNY     68  36  30 N6        30.08F
ESTHERVILLE    SUNNY     67  27  22 NW13      30.10S
LE MARS        SUNNY     70  36  28 VRB5      30.11S
ORANGE CITY    SUNNY     70  28  21 NE5       30.11F
SHELDON        SUNNY     68  30  24 N6        30.10F
SIOUX CITY     SUNNY     71  33  24 N7        30.10F
SPENCER        SUNNY     68  33  27 N9        30.10F
STORM LAKE     SUNNY     68  32  26 N9        30.11F
$$

ABBREVIATIONS USED IN REMARKS
   TC - TEMPERATURE IN CELSIUS
  WCI - WIND CHILL INDEX
   HX - HEAT INDEX
  VSB - VISIBILITY




USA.gov is the U.S. government's official web portal to all federal, state and local government web resources and services.